Погода в Ясном

Россия / Калининградская область     55°10′29″N   21°32′38″E
темп.,
°C
ветер,
м/с
пор.,
м/с
влажн.,
%
обл.,
%
осадки,
мм/ч
давл.,
гПа
погр.,
м
23 апреля, пт
пт2323:00+3з6108897 0.5 1010847
02:00+3з71090100 0.9 1010912
05:00+3зсз7128899 0.6 10111099
08:00+4зсз6976100 1.2 10121242
11:00+5зсз8107328 1.1 10141323
14:00+5зсз8116672 2.0 10161620
17:00+4сз7106628 0.4 10171440
20:00+2сз49755 0.6 1018386
24 апреля, сб
сб2423:00+2зсз497898 0.1 1018303
02:00+3зсз496890 0.1 1018353
05:00+4зсз61159100 0.1 1017669
08:00+5зсз5105987 0.4 10171357
11:00+6зсз79565 0.1 10181497
14:00+6зсз79545 0.2 10181595
17:00+4сз78567 0.1 10181530
20:00+2сз596896 0.3 1019493
25 апреля, вс
вс2523:00+1сз497566 0.1 1018405
02:00+3сз6107499 0.4 1018788
05:00+2сз5107418 0.3 1017492
08:00+4сз69616 0.3 10171425
11:00+6сз7105245 0.0 10171739
14:00+6сз795496 0.1 10181729
17:00+4сз7956100 0.0 10181593
20:00+2сз6978100 0.1 1018873
26 апреля, пн
пн2623:00+2сз597685 0.3 1017935
02:00+2зсз61078100 0.6 1016899
05:00+2сз61078100 0.3 1015922
08:00+4сз6969100 0.7 10141443
11:00+6зсз71056100 0.4 10141746
14:00+5зсз81068100 0.7 10141422
17:00+4зсз71185100 0.5 1013991
20:00+3зсз71197100 1.0 1012766
27 апреля, вт
вт2723:00+4сз61095100 0.4 1012652
02:00+4сз5993100 0.4 1012678
05:00+4сз5991100 0.1 1012690
08:00+5сз588597 0.3 1013846
11:00+6сз6773100 0.3 10141051
14:00+6зсз566798 0.4 10141152
17:00+5сз566797 0.0 10141065
20:00+4сз3566100 0.0 1014498